When you browse on this site, cookies collect data to enhance your experience and personalize the content and advertising you see.
Visit our Privacy Policy to learn more. By continuing to use the site, you agree to this use of cookies and data.
  • In France
  • List of Countries
  • For 7 days
  • Water Temperature
  • Satellite Maps
  • Weather Map
  • Weather Widgets
  • user-avatar
    Login

    Hourly Weather Kokrek

    Today, 10 December, Monday

    Time Temperature Precipitation Wind Pressure Humidity
    00:00 +4°C° 0 mm 4 mps 756 mmHg 80%
    01:00 +4°C° 0 mm 4 mps 756 mmHg 80%
    02:00 +4°C° 0 mm 4 mps 755 mmHg 80%
    03:00 +4°C° 0 mm 4 mps 755 mmHg 80%
    04:00 +4°C° 0 mm 4 mps 755 mmHg 79%
    05:00 +4°C° 0 mm 4 mps 754 mmHg 79%
    06:00 +4°C° 0 mm 4 mps 754 mmHg 78%
    07:00 +5°C° 0 mm 4 mps 754 mmHg 75%
    08:00 +6°C° 0 mm 4 mps 754 mmHg 71%
    09:00 +6°C° 0 mm 4 mps 753 mmHg 67%
    10:00 +8°C° 0 mm 5 mps 753 mmHg 63%
    11:00 +9°C° 0 mm 5 mps 752 mmHg 60%
    12:00 +10°C° 0 mm 5 mps 752 mmHg 56%
    13:00 +10°C° 0 mm 5 mps 752 mmHg 59%
    14:00 +9°C° 0 mm 5 mps 752 mmHg 62%
    15:00 +9°C° 0 mm 5 mps 751 mmHg 65%
    16:00 +8°C° 0 mm 4 mps 751 mmHg 70%
    17:00 +7°C° 0 mm 4 mps 751 mmHg 75%
    18:00 +7°C° 0 mm 4 mps 751 mmHg 80%
    19:00 +8°C° 0 mm 3 mps 751 mmHg 80%
    20:00 +7°C° 0 mm 3 mps 751 mmHg 80%
    21:00 +7°C° 0 mm 2 mps 751 mmHg 80%
    22:00 +7°C° 0 mm 2 mps 751 mmHg 79%
    23:00 +7°C° 0 mm 2 mps 751 mmHg 77%

    Tomorrow, 11 December, Tuesday

    Time Temperature Precipitation Wind Pressure Humidity
    00:00 +8°C° 0 mm 1 mps 751 mmHg 76%
    01:00 +8°C° 0 mm 1 mps 751 mmHg 76%
    02:00 +8°C° 0 mm 1 mps 751 mmHg 76%
    03:00 +8°C° 0 mm 1 mps 751 mmHg 75%
    04:00 +8°C° 0 mm 1 mps 750 mmHg 75%
    05:00 +8°C° 0 mm 1 mps 750 mmHg 76%
    06:00 +8°C° 0 mm 1 mps 750 mmHg 76%
    07:00 +8°C° 0 mm 1 mps 750 mmHg 74%
    08:00 +9°C° 0 mm 1 mps 750 mmHg 72%
    09:00 +9°C° 0 mm 1 mps 750 mmHg 70%
    10:00 +10°C° 0 mm 1 mps 749 mmHg 65%
    11:00 +11°C° 0 mm 1 mps 749 mmHg 61%
    12:00 +13°C° 0 mm 1 mps 748 mmHg 56%
    13:00 +13°C° 0 mm 2 mps 748 mmHg 57%
    14:00 +13°C° 0 mm 2 mps 747 mmHg 57%
    15:00 +12°C° 0 mm 3 mps 747 mmHg 58%
    16:00 +11°C° 0 mm 3 mps 747 mmHg 62%
    17:00 +11°C° 0 mm 3 mps 746 mmHg 65%
    18:00 +10°C° 0 mm 4 mps 746 mmHg 69%
    19:00 +10°C° 0 mm 4 mps 746 mmHg 68%
    20:00 +10°C° 0 mm 3 mps 745 mmHg 66%
    21:00 +10°C° 0 mm 3 mps 745 mmHg 64%
    22:00 +10°C° 0 mm 3 mps 745 mmHg 64%
    23:00 +10°C° 0 mm 3 mps 745 mmHg 65%

    Day after tomorrow, 12 December, Wednesday

    Time Temperature Precipitation Wind Pressure Humidity
    00:00 +10°C° 0 mm 3 mps 745 mmHg 65%
    01:00 +10°C° 0 mm 4 mps 746 mmHg 66%
    02:00 +8°C° 0 mm 5 mps 746 mmHg 68%
    03:00 +8°C° 0 mm 6 mps 747 mmHg 70%
    04:00 +8°C° 0.2 mm 6 mps 748 mmHg 73%
    05:00 +8°C° 0.2 mm 6 mps 749 mmHg 76%
    06:00 +8°C° 0.2 mm 7 mps 749 mmHg 79%
    07:00 +8°C° 0.3 mm 6 mps 750 mmHg 78%
    08:00 +9°C° 0.3 mm 6 mps 751 mmHg 77%
    09:00 +9°C° 0.3 mm 5 mps 752 mmHg 76%
    10:00 +10°C° 0 mm 5 mps 752 mmHg 69%
    11:00 +12°C° 0 mm 5 mps 752 mmHg 62%
    12:00 +12°C° 0 mm 4 mps 752 mmHg 55%
    13:00 +12°C° 0 mm 4 mps 752 mmHg 54%
    14:00 +12°C° 0 mm 3 mps 752 mmHg 54%
    15:00 +12°C° 0 mm 3 mps 752 mmHg 53%
    16:00 +12°C° 0 mm 2 mps 752 mmHg 59%
    17:00 +10°C° 0 mm 2 mps 753 mmHg 64%
    18:00 +9°C° 0 mm 2 mps 753 mmHg 70%
    19:00 +9°C° 0 mm 1 mps 753 mmHg 72%
    20:00 +9°C° 0 mm 1 mps 753 mmHg 74%
    21:00 +9°C° 0 mm 1 mps 753 mmHg 76%
    22:00 +9°C° 0.1 mm 1 mps 752 mmHg 77%
    23:00 +7°C° 0.1 mm 2 mps 752 mmHg 78%

    13 December, Thursday

    Time Temperature Precipitation Wind Pressure Humidity
    00:00 +7°C° 0.1 mm 2 mps 752 mmHg 79%
    01:00 +7°C° 0.1 mm 2 mps 752 mmHg 82%
    02:00 +7°C° 0.1 mm 2 mps 751 mmHg 84%
    03:00 +6°C° 0.1 mm 2 mps 751 mmHg 87%
    04:00 +6°C° 0.3 mm 2 mps 751 mmHg 89%
    05:00 +6°C° 0.3 mm 2 mps 751 mmHg 91%
    06:00 +6°C° 0.3 mm 2 mps 751 mmHg 93%
    07:00 +6°C° 0.4 mm 2 mps 752 mmHg 93%
    08:00 +6°C° 0.4 mm 2 mps 752 mmHg 92%
    09:00 +6°C° 0.4 mm 2 mps 753 mmHg 92%
    10:00 +6°C° 0.2 mm 2 mps 753 mmHg 89%
    11:00 +7°C° 0.2 mm 3 mps 753 mmHg 86%
    12:00 +7°C° 0.2 mm 3 mps 754 mmHg 83%
    13:00 +6°C° 0.4 mm 4 mps 754 mmHg 83%
    14:00 +6°C° 0.4 mm 4 mps 755 mmHg 84%
    15:00 +6°C° 0.4 mm 4 mps 755 mmHg 84%
    16:00 +5°C° 0.2 mm 3 mps 756 mmHg 85%
    17:00 +5°C° 0.2 mm 3 mps 757 mmHg 86%
    18:00 +5°C° 0.2 mm 3 mps 757 mmHg 87%
    19:00 +5°C° 0.1 mm 3 mps 757 mmHg 86%
    20:00 +6°C° 0.1 mm 2 mps 758 mmHg 86%
    21:00 +6°C° 0.1 mm 2 mps 758 mmHg 85%
    22:00 +6°C° 0.1 mm 2 mps 758 mmHg 84%
    23:00 +5°C° 0.1 mm 2 mps 758 mmHg 83%

    14 December, Friday

    Time Temperature Precipitation Wind Pressure Humidity
    00:00 +5°C° 0.1 mm 2 mps 758 mmHg 82%
    01:00 +5°C° 0 mm 2 mps 758 mmHg 82%
    02:00 +5°C° 0 mm 2 mps 758 mmHg 83%
    03:00 +4°C° 0 mm 2 mps 759 mmHg 83%
    04:00 +4°C° 0 mm 2 mps 759 mmHg 83%
    05:00 +4°C° 0 mm 2 mps 759 mmHg 83%
    06:00 +4°C° 0 mm 2 mps 759 mmHg 83%
    07:00 +4°C° 0 mm 2 mps 760 mmHg 81%
    08:00 +5°C° 0 mm 2 mps 760 mmHg 79%
    09:00 +5°C° 0 mm 2 mps 760 mmHg 77%
    10:00 +6°C° 0 mm 2 mps 760 mmHg 73%
    11:00 +6°C° 0 mm 2 mps 760 mmHg 69%
    12:00 +7°C° 0 mm 2 mps 759 mmHg 65%
    13:00 +7°C° 0 mm 2 mps 760 mmHg 64%
    14:00 +8°C° 0 mm 1 mps 760 mmHg 63%
    15:00 +8°C° 0 mm 1 mps 760 mmHg 62%
    16:00 +7°C° 0 mm 1 mps 760 mmHg 67%
    17:00 +6°C° 0 mm 1 mps 761 mmHg 71%
    18:00 +5°C° 0 mm 1 mps 761 mmHg 76%
    19:00 +5°C° 0 mm 1 mps 761 mmHg 76%
    20:00 +5°C° 0 mm 1 mps 761 mmHg 76%
    21:00 +4°C° 0 mm 1 mps 761 mmHg 77%
    22:00 +4°C° 0 mm 1 mps 761 mmHg 76%
    23:00 +4°C° 0 mm 1 mps 761 mmHg 76%

    15 December, Saturday

    Time Temperature Precipitation Wind Pressure Humidity
    00:00 +4°C° 0 mm 1 mps 761 mmHg 75%
    01:00 +4°C° 0 mm 1 mps 761 mmHg 75%
    02:00 +4°C° 0 mm 1 mps 761 mmHg 74%
    03:00 +4°C° 0 mm 1 mps 761 mmHg 73%
    04:00 +3°C° 0 mm 1 mps 761 mmHg 72%
    05:00 +3°C° 0 mm 1 mps 761 mmHg 71%
    06:00 +3°C° 0 mm 1 mps 761 mmHg 69%
    07:00 +4°C° 0 mm 1 mps 762 mmHg 66%
    08:00 +5°C° 0 mm 1 mps 762 mmHg 64%
    09:00 +6°C° 0 mm 1 mps 762 mmHg 61%
    10:00 +6°C° 0 mm 2 mps 762 mmHg 57%
    11:00 +7°C° 0 mm 2 mps 761 mmHg 54%
    12:00 +8°C° 0 mm 2 mps 761 mmHg 51%
    13:00 +8°C° 0 mm 2 mps 761 mmHg 52%
    14:00 +8°C° 0 mm 2 mps 761 mmHg 54%
    15:00 +8°C° 0 mm 3 mps 761 mmHg 55%
    16:00 +7°C° 0 mm 3 mps 761 mmHg 60%
    17:00 +5°C° 0 mm 3 mps 762 mmHg 65%
    18:00 +4°C° 0 mm 3 mps 762 mmHg 69%
    19:00 +4°C° 0 mm 3 mps 762 mmHg 69%
    20:00 +4°C° 0 mm 3 mps 762 mmHg 68%
    21:00 +4°C° 0 mm 3 mps 762 mmHg 68%
    22:00 +5°C° 0 mm 2 mps 762 mmHg 67%
    23:00 +5°C° 0 mm 2 mps 761 mmHg 66%
    Show more